[[{"header":{"parameterUnit":"m.s-1","parameterCategory":1,"la1":30.2991,"la2":30.254,"lo1":-89.0895,"lo2":-89.0444,"dy":0.0017,"dx":0.0017,"nx":28,"ny":28,"refTime":"2025-02-03T03:00:00:Z","depth":0,"parameterNumber":2,"parameterNumberName":"U-component_of_WINDS"},"data":[0,0,0,0,0,0,0,0,0,0,0,0,0,0,0,0,0,0,0,0,0,0,0,0,0,0,0,0,0,0,0,0,0,0,0,0,0,0,0,0,0,0,0,0,0,0,0,0,0,0,0,0,0,0,0,0,0,0,-2.3919,-2.392,0,-2.4016,-2.4017,-2.4018,-2.4017,-2.4016,-2.4014,-2.4013,-2.411,-2.4114,-2.4118,0,0,0,0,0,0,0,0,0,0,0,0,0,-2.3733,-2.3737,-2.3919,-2.392,-2.3922,-2.4016,-2.4017,-2.4019,-2.4017,-2.4016,-2.4014,-2.4012,-2.4109,-2.4114,-2.4118,0,0,0,0,0,0,0,0,0,0,0,0,0,-2.382,-2.3738,-2.3919,-2.3932,-2.3934,-2.4016,-2.4017,-2.4019,-2.4017,-2.4016,-2.4014,-2.4012,-2.4108,-2.4113,-2.4119,-2.4193,0,0,-2.4136,-2.4139,0,0,0,0,0,0,0,0,-2.3815,-2.3827,-2.3929,-2.3932,-2.3934,-2.4003,-2.3988,-2.4077,-2.4018,-2.3986,-2.4013,-2.4011,-2.4076,-2.4084,-2.4107,-2.4197,-2.4202,-2.4137,-2.414,-2.4143,-2.4144,0,0,0,0,0,0,0,-2.3809,-2.3823,-2.3958,-2.3931,-2.3934,-2.3934,-2.3944,-2.4005,-2.4041,-2.3989,-2.3989,-2.4,-2.4077,-2.4101,-2.4109,-2.4203,-2.4137,-2.4142,-2.4145,-2.4147,-2.4362,-2.4364,0,0,0,0,0,0,-2.3801,-2.3818,-2.3954,-2.396,-2.3869,-2.3939,-2.395,-2.3983,-2.404,-2.4047,-2.4002,-2.4,-2.4092,-2.4102,-2.4112,-2.4203,-2.4143,-2.4148,-2.4151,-2.436,-2.4362,-2.4365,0,0,0,0,0,0,-2.3797,-2.3813,-2.3951,-2.3889,-2.3907,-2.3944,-2.398,-2.3985,-2.4009,-2.405,-2.4056,-2.402,-2.4091,-2.4104,-2.4173,-2.4207,-2.4151,-2.4156,-2.4357,-2.436,-2.4364,-2.4385,0,0,0,0,0,0,-2.3791,-2.3811,-2.3839,-2.389,-2.391,-2.401,-2.3982,-2.3989,-2.402,-2.4018,-2.4068,-2.4075,-2.4091,-2.4165,-2.4179,-2.4213,-2.416,-2.4354,-2.4358,-2.4362,-2.4382,-2.4389,-2.4395,0,0,0,0,0,-2.3785,-2.3841,-2.3841,-2.3857,-2.3946,-2.4012,-2.4023,-2.4041,-2.4022,-2.4051,-2.4078,-2.4073,-2.4201,-2.4172,-2.4188,-2.4224,-2.4352,-2.4357,-2.4362,-2.4379,-2.4388,-2.4395,0,0,0,0,0,0,-2.3791,-2.3848,-2.3848,-2.3922,-2.3963,-2.4011,-2.4048,-2.4049,-2.4095,-2.4091,-2.4111,-2.4122,-2.4191,-2.4215,-2.4182,-2.43,-2.4274,-2.4283,-2.4282,-2.429,-2.4297,-2.4289,-2.4165,0,0,0,0,0,-2.3802,-2.3851,-2.3897,-2.3958,-2.3979,-2.401,-2.4039,-2.405,-2.4092,-2.4108,-2.414,-2.418,-2.423,-2.4262,-2.431,-2.4387,-2.4398,-2.442,-2.4427,-2.4432,-2.4438,-2.4482,-2.4492,-2.4382,-2.4382,-2.4381,0,0,-2.3823,-2.386,-2.3889,-2.3961,-2.3993,-2.4043,-2.4024,-2.4077,-2.4115,-2.4116,-2.4183,-2.4209,-2.4256,-2.4329,-2.4363,-2.4351,-2.4472,-2.4439,-2.4442,-2.4446,-2.4488,-2.4499,-2.4508,-2.4385,-2.4384,-2.4384,0,0,-2.3887,-2.392,-2.3975,-2.4009,-2.4059,-2.408,-2.4094,-2.4143,-2.416,-2.4229,-2.4231,-2.4277,-2.4361,-2.4395,-2.4423,-2.4505,-2.4503,-2.4521,-2.4555,-2.4597,-2.4606,-2.4614,-2.4643,-2.4653,-2.4527,-2.4527,-2.4527,0,-2.3907,-2.3983,-2.4003,-2.4058,-2.4089,-2.4095,-2.4151,-2.4183,-2.4246,-2.4267,-2.4254,-2.4362,-2.4394,-2.4476,-2.4497,-2.452,-2.4536,-2.4513,-2.4603,-2.4611,-2.4619,-2.4646,-2.4657,-2.4529,-2.4529,-2.4529,-2.4529,0,-2.4005,-2.4058,-2.4097,-2.4158,-2.4195,-2.425,-2.4279,-2.4314,-2.4323,-2.4345,-2.4416,-2.4456,-2.4512,-2.4533,-2.4541,-2.4617,-2.4608,-2.4599,-2.4573,-2.4631,-2.4657,-2.4668,-2.4531,-2.4531,-2.453,-2.453,0,0,-2.4072,-2.4147,-2.4161,-2.419,-2.4248,-2.4289,-2.4346,-2.4402,-2.4431,-2.4476,-2.4524,-2.4597,-2.459,-2.4622,-2.4635,-2.4672,-2.4735,-2.4659,-2.466,-2.4671,-2.4822,-2.4827,-2.4839,-2.4736,-2.4738,-2.474,-2.4818,0,-2.4141,-2.4241,-2.4263,-2.4349,-2.4399,-2.4408,-2.4457,-2.4498,-2.4522,-2.4568,-2.4595,-2.4647,-2.4633,-2.4653,-2.4691,-2.4719,-2.4765,-2.4714,-2.478,-2.4782,-2.4765,-2.4853,-2.4858,-2.493,-2.4828,-2.483,-2.4831,0,-2.4234,-2.4282,-2.4374,-2.4428,-2.4449,-2.4493,-2.4548,-2.4592,-2.464,-2.4655,-2.4693,-2.4703,-2.4763,-2.4736,-2.4819,-2.4784,-2.4813,-2.4831,-2.4835,-2.4839,-2.4808,-2.4859,-2.4953,-2.4963,-2.4848,-2.4847,-2.4845,0,-2.4273,-2.4361,-2.4428,-2.4452,-2.4516,-2.4547,-2.4575,-2.4621,-2.4655,-2.4704,-2.4726,-2.478,-2.481,-2.4852,-2.4877,-2.4855,-2.4958,-2.4933,-2.4972,-2.4971,-2.499,-2.4988,-2.5089,-2.5012,-2.5012,-2.5012,-2.5012,0,-2.4347,-2.4402,-2.4446,-2.4487,-2.455,-2.4576,-2.4638,-2.4666,-2.4708,-2.4754,-2.4766,-2.4809,-2.484,-2.4889,-2.4909,-2.4974,-2.4988,-2.5002,-2.5006,-2.4999,-2.4998,-2.5016,-2.5011,-2.5015,-2.5014,-2.5014,-2.5013,0,-2.4399,-2.4431,-2.4504,-2.456,-2.4575,-2.4619,-2.4668,-2.4708,-2.4734,-2.4793,-2.4809,-2.4849,-2.4907,-2.4937,-2.5009,-2.5023,-2.5096,-2.5099,-2.508,-2.5081,-2.5118,-2.5113,-2.5232,-2.5249,-2.5163,-2.5164,-2.5164,0,-2.4442,-2.4486,-2.4547,-2.458,-2.4609,-2.4662,-2.4697,-2.4725,-2.4761,-2.4821,-2.4854,-2.4913,-2.4961,-2.5054,-2.509,-2.5145,-2.5148,-2.5186,-2.5156,-2.5149,-2.5147,-2.5143,-2.5148,-2.519,-2.5191,-2.5192,-2.5192,0,-2.4516,-2.4531,-2.4581,-2.4638,-2.468,-2.4726,-2.4771,-2.4798,-2.4834,-2.4874,-2.4934,-2.4972,-2.5047,-2.5105,-2.5164,-2.5194,-2.5199,-2.5202,-2.5214,-2.5206,-2.5193,-2.52,-2.5093,-2.5198,-2.5198,-2.5197,-2.5197,-2.5197,-2.4565,-2.4604,-2.4655,-2.4711,-2.4749,-2.4792,-2.4833,-2.4866,-2.4916,-2.498,-2.4994,-2.5058,-2.5107,-2.5188,-2.5219,-2.527,-2.5261,-2.5278,-2.5282,-2.5286,-2.5287,-2.5188,-2.5281,-2.5281,-2.528,-2.528,-2.528,0,-2.4639,-2.4673,-2.4724,-2.4788,-2.4833,-2.4837,-2.4889,-2.4926,-2.4982,-2.5028,-2.5076,-2.5146,-2.5204,-2.5246,-2.5305,-2.5338,-2.5342,-2.5352,-2.5349,-2.5356,-2.5291,-2.5275,-2.5348,-2.5348,-2.5348,-2.5348,-2.5348,-2.5348,-2.4682,-2.4749,-2.4771,-2.4857,-2.4891,-2.4954,-2.4983,-2.5023,-2.506,-2.5138,-2.5187,-2.5215,-2.526,-2.5323,-2.5377,-2.5388,-2.5408,-2.5418,-2.5429,-2.5367,-2.536,-2.5353,-2.5337,-2.5423,-2.5423,-2.5489,-2.549,-2.549]},{"header":{"parameterUnit":"m.s-1","parameterCategory":1,"la1":30.2991,"la2":30.254,"lo1":-89.0895,"lo2":-89.0444,"dy":0.0017,"dx":0.0017,"nx":28,"ny":28,"refTime":"2025-02-03T03:00:00:Z","depth":0,"parameterNumber":3,"parameterNumberName":"V-component_of_WINDS"},"data":[0,0,0,0,0,0,0,0,0,0,0,0,0,0,0,0,0,0,0,0,0,0,0,0,0,0,0,0,0,0,0,0,0,0,0,0,0,0,0,0,0,0,0,0,0,0,0,0,0,0,0,0,0,0,0,0,0,0,0.7046,0.7045,0,0.7026,0.7025,0.7025,0.7058,0.7059,0.7061,0.7062,0.7037,0.7035,0.7034,0,0,0,0,0,0,0,0,0,0,0,0,0,0.711,0.7108,0.7046,0.7045,0.7045,0.7026,0.7025,0.7025,0.7058,0.706,0.7061,0.7062,0.7037,0.7035,0.7033,0,0,0,0,0,0,0,0,0,0,0,0,0,0.7085,0.7108,0.7046,0.7059,0.706,0.7026,0.7025,0.7025,0.7058,0.706,0.7061,0.7063,0.7038,0.7036,0.7033,0.6983,0,0,0.7025,0.7024,0,0,0,0,0,0,0,0,0.7086,0.7083,0.7058,0.7058,0.7059,0.7046,0.7039,0.7011,0.7057,0.7059,0.7062,0.7064,0.7038,0.7036,0.7028,0.6982,0.6981,0.7025,0.7023,0.7022,0.7022,0,0,0,0,0,0,0,0.7088,0.7084,0.7038,0.7057,0.7058,0.7066,0.7064,0.7034,0.7039,0.7059,0.7061,0.7058,0.7039,0.7031,0.7028,0.698,0.7025,0.7023,0.7021,0.702,0.6894,0.6892,0,0,0,0,0,0,0.7089,0.7085,0.7038,0.7037,0.7078,0.7063,0.7061,0.7049,0.7039,0.704,0.7057,0.706,0.7034,0.7031,0.7027,0.6969,0.7022,0.702,0.7018,0.6896,0.6893,0.6891,0,0,0,0,0,0,0.709,0.7084,0.7039,0.7062,0.7057,0.706,0.7046,0.7047,0.7039,0.7038,0.7039,0.7048,0.7035,0.7031,0.6994,0.6969,0.7019,0.7016,0.6898,0.6895,0.6892,0.6852,0,0,0,0,0,0,0.7091,0.7084,0.7066,0.7061,0.7055,0.7007,0.7044,0.7046,0.7035,0.7039,0.703,0.703,0.7036,0.6998,0.6992,0.6966,0.7014,0.69,0.6896,0.6893,0.6856,0.6848,0.6842,0,0,0,0,0,0.7094,0.7054,0.7064,0.7059,0.7032,0.7006,0.7002,0.7012,0.7033,0.7014,0.7014,0.703,0.6973,0.6994,0.6987,0.696,0.6902,0.6897,0.6893,0.6859,0.685,0.6842,0,0,0,0,0,0,0.7053,0.7053,0.7065,0.7023,0.7014,0.7011,0.6988,0.7002,0.6986,0.699,0.7002,0.6999,0.6961,0.6957,0.6981,0.6912,0.6941,0.6935,0.6916,0.6908,0.6901,0.6903,0.7012,0,0,0,0,0,0.7039,0.7019,0.702,0.6982,0.6977,0.6983,0.6972,0.6981,0.6972,0.6968,0.6965,0.6955,0.6935,0.6921,0.6902,0.6855,0.6854,0.6834,0.6827,0.6821,0.6816,0.6793,0.6784,0.6878,0.6878,0.6878,0,0,0.701,0.7008,0.6994,0.6974,0.6968,0.6947,0.698,0.6955,0.6939,0.6963,0.693,0.6928,0.6917,0.6876,0.6857,0.6871,0.679,0.6816,0.6812,0.681,0.6788,0.6779,0.6771,0.6875,0.6876,0.6876,0,0,0.6946,0.6942,0.6911,0.6906,0.6898,0.6903,0.6895,0.6891,0.6891,0.6858,0.6877,0.6858,0.6822,0.6815,0.6806,0.6742,0.6757,0.6736,0.67,0.6677,0.6669,0.6663,0.6641,0.6633,0.6731,0.6731,0.6731,0,0.691,0.688,0.6893,0.6868,0.6859,0.6883,0.6852,0.6845,0.6831,0.6824,0.684,0.6799,0.6793,0.6751,0.6736,0.6728,0.672,0.6737,0.667,0.6663,0.6657,0.6637,0.6629,0.6728,0.6728,0.6729,0.6729,0,0.6837,0.6815,0.6791,0.678,0.6768,0.6739,0.6748,0.6735,0.6745,0.6748,0.6715,0.6709,0.6691,0.6682,0.669,0.6642,0.6651,0.6668,0.6696,0.6646,0.6627,0.6619,0.6725,0.6726,0.6726,0.6727,0,0,0.6745,0.6744,0.6734,0.673,0.6725,0.6708,0.6681,0.6665,0.6654,0.6643,0.6621,0.6592,0.661,0.66,0.6608,0.6588,0.654,0.6608,0.6608,0.6596,0.6487,0.6474,0.6465,0.655,0.6548,0.6547,0.6488,0,0.6683,0.6638,0.6651,0.6606,0.6587,0.6611,0.6588,0.6581,0.6584,0.6567,0.6569,0.6549,0.6573,0.6567,0.6548,0.6549,0.6518,0.6554,0.6529,0.6528,0.6531,0.6455,0.6441,0.6385,0.6481,0.6479,0.6478,0,0.6603,0.6593,0.6547,0.6547,0.6539,0.6518,0.6506,0.649,0.6483,0.6487,0.6477,0.649,0.6464,0.6493,0.6457,0.6482,0.6472,0.6472,0.647,0.6468,0.65,0.6451,0.6368,0.636,0.6467,0.6468,0.6468,0,0.6542,0.6516,0.6486,0.6482,0.648,0.6465,0.6464,0.646,0.645,0.6439,0.6433,0.6418,0.641,0.6398,0.6406,0.6427,0.6369,0.6399,0.6371,0.6371,0.6358,0.6359,0.6272,0.6351,0.6351,0.6352,0.6352,0,0.6471,0.6442,0.6459,0.644,0.6409,0.6424,0.6392,0.6393,0.639,0.6372,0.6391,0.6373,0.6385,0.6369,0.6375,0.6345,0.6341,0.6343,0.6345,0.6341,0.6341,0.6335,0.634,0.6349,0.635,0.635,0.6351,0,0.6398,0.6408,0.6377,0.6379,0.6379,0.6356,0.6358,0.634,0.6345,0.6322,0.6317,0.6324,0.6306,0.6314,0.6293,0.6298,0.626,0.6267,0.6263,0.6265,0.6237,0.624,0.6144,0.6133,0.6219,0.6218,0.6217,0,0.6352,0.6331,0.6332,0.6322,0.632,0.6303,0.6295,0.6309,0.6299,0.6291,0.6275,0.6259,0.6247,0.6216,0.6219,0.6204,0.6211,0.6179,0.6209,0.6207,0.6212,0.6213,0.6211,0.6172,0.6171,0.6171,0.617,0,0.627,0.6277,0.6264,0.6254,0.6243,0.6235,0.6228,0.6219,0.6233,0.6221,0.6204,0.6194,0.6175,0.6159,0.6147,0.6144,0.6159,0.6161,0.6154,0.615,0.6149,0.615,0.6247,0.6163,0.6163,0.6164,0.6164,0.6165,0.6209,0.6193,0.6192,0.6177,0.6175,0.6169,0.6153,0.6157,0.6144,0.6131,0.614,0.612,0.6115,0.6101,0.6097,0.6081,0.6093,0.6083,0.608,0.6078,0.6075,0.6152,0.6078,0.6079,0.6079,0.6079,0.6079,0,0.6129,0.6131,0.6118,0.6109,0.6098,0.6116,0.611,0.6099,0.6082,0.6078,0.6066,0.6047,0.6032,0.6035,0.6021,0.6008,0.6015,0.6004,0.6005,0.6005,0.6063,0.6071,0.5999,0.5999,0.5999,0.5999,0.5999,0.5999,0.6087,0.606,0.6067,0.6039,0.604,0.6022,0.6017,0.6012,0.6009,0.5987,0.5976,0.5979,0.5977,0.5964,0.5951,0.5952,0.5947,0.5934,0.5937,0.5992,0.6,0.6008,0.6015,0.5932,0.5932,0.588,0.5879,0.5879]}]]